Powrót do katalogu

STARLINK-4253

AktywnyŁącznośćVLEO
NORAD 53004·PAYLOAD·🇺🇸 United States

Wystrzelony Jul 7, 2022 z Cape Canaveral Space Force Station

Loading…

Następne Przeloty (najbliższe 24 godziny)

TLE

ŚwieżeSource: CelesTrak SupGP

Epoka: Sep 14, 2026, 20:36 UTC

1 53004C 22076U   26257.85881944 -.00034815  00000+0 -11197-2 0  2578
2 53004  53.1577 318.0846 0001200  84.9677 213.8974 15.31714431    11

Śledź STARLINK-4253 w czasie rzeczywistym z AllMySat

Download on the App Store